Location: Olomouc
(49.5830°N, 17.2500°E)
Time: 03:24:06
(UTC+01:00)

ISS - Pass Details

Date: 04 October 2020
Orbit: 417 x 420 km, 51.6° (Epoch: 25 October)

Event Time Altitude Azimuth Distance (km) Brightness Sun altitude
Rises 20:20:48 0° 284° (WNW) 2,369 1.7 -19.8°
Reaches altitude 10° 20:23:19 10° 266° (W) 1,502 0.0 -20.2°
Maximum altitude 20:25:44 18° 220° (SW) 1,091 -1.4 -20.6°
Enters shadow 20:26:34 17° 200° (SSW) 1,147 -1.5 -20.7°
